| time (UTC) | temp C | wind direction | speed KPH | gust KPH | rain 1hr cm | rain 24hr cm | rain mn cm | humidity % | barometer mb |
| 20260507053030 | 12 | 71 | 16.1 | 22.5 | 0.00 | 0.00 | 0.00 | 36 | 1008.0 |
| 20260507051532 | 12 | 55 | 20.9 | 29.0 | 0.00 | 0.00 | 0.00 | 34 | 1008.0 |
| 20260507050034 | 13 | 80 | 19.3 | 22.5 | 0.00 | 0.00 | 0.00 | 32 | 1007.7 |
| 20260507044542 | 12 | 99 | 12.9 | 16.1 | 0.00 | 0.00 | 0.00 | 33 | 1007.8 |
| 20260507043037 | 13 | 98 | 9.7 | 17.7 | 0.00 | 0.00 | 0.00 | 32 | 1007.7 |
| 20260507041532 | 15 | 69 | 14.5 | 20.9 | 0.00 | 0.00 | 0.00 | 29 | 1007.7 |
| 20260507040030 | 15 | 118 | 12.9 | 25.7 | 0.00 | 0.00 | 0.00 | 29 | 1007.6 |
| 20260507034532 | 15 | 118 | 12.9 | 20.9 | 0.00 | 0.00 | 0.00 | 28 | 1007.8 |
| 20260507033030 | 16 | 0 | 3.2 | 27.4 | 0.00 | 0.00 | 0.00 | 28 | 1008.0 |
| 20260507031530 | 14 | 178 | 6.4 | 12.9 | 0.00 | 0.00 | 0.00 | 30 | 1007.6 |
| 20260507030037 | 15 | 126 | 11.3 | 16.1 | 0.00 | 0.00 | 0.00 | 30 | 1007.3 |
| 20260507024534 | 15 | 123 | 12.9 | 14.5 | 0.00 | 0.00 | 0.00 | 29 | 1007.2 |
| 20260507023033 | 16 | 107 | 9.7 | 11.3 | 0.00 | 0.00 | 0.00 | 27 | 1007.1 |
| 20260507021529 | 17 | 87 | 6.4 | 17.7 | 0.00 | 0.00 | 0.00 | 26 | 1007.1 |
| 20260507020033 | 18 | 355 | 4.8 | 8.0 | 0.00 | 0.00 | 0.00 | 24 | 1007.0 |
| 20260507014535 | 19 | 327 | 3.2 | 9.7 | 0.00 | 0.00 | 0.00 | 24 | 1007.2 |
| 20260507013035 | 19 | 316 | 3.2 | 8.0 | 0.00 | 0.00 | 0.00 | 24 | 1007.1 |
| 20260507011533 | 19 | 345 | 11.3 | 24.1 | 0.00 | 0.00 | 0.00 | 23 | 1007.2 |
| 20260507010032 | 20 | 346 | 14.5 | 30.6 | 0.00 | 0.00 | 0.00 | 23 | 1007.2 |
| 20260507004532 | 21 | 343 | 17.7 | 30.6 | 0.00 | 0.00 | 0.00 | 22 | 1007.4 |
| 20260507003028 | 21 | 28 | 25.7 | 37.0 | 0.00 | 0.00 | 0.00 | 22 | 1007.5 |
| 20260507001534 | 21 | 350 | 16.1 | 29.0 | 0.00 | 0.00 | 0.00 | 23 | 1007.4 |
| 20260507000033 | 20 | 355 | 14.5 | 25.7 | 0.00 | 0.00 | 0.00 | 24 | 1007.4 |
| 20260506234533 | 20 | 22 | 14.5 | 29.0 | 0.00 | 0.00 | 0.00 | 24 | 1007.3 |
| 20260506233032 | 20 | 328 | 9.7 | 22.5 | 0.00 | 0.00 | 0.00 | 23 | 1007.4 |
| 20260506231533 | 20 | 344 | 11.3 | 20.9 | 0.00 | 0.00 | 0.00 | 24 | 1007.6 |
| 20260506230028 | 20 | 270 | 9.7 | 20.9 | 0.00 | 0.00 | 0.00 | 24 | 1007.8 |
| 20260506224534 | 19 | 311 | 9.7 | 24.1 | 0.00 | 0.00 | 0.00 | 23 | 1008.0 |
| 20260506223036 | 18 | 275 | 12.9 | 22.5 | 0.00 | 0.00 | 0.00 | 23 | 1008.4 |
| 20260506221533 | 18 | 273 | 9.7 | 19.3 | 0.00 | 0.00 | 0.00 | 23 | 1008.8 |
| 20260506220036 | 18 | 300 | 14.5 | 29.0 | 0.00 | 0.00 | 0.00 | 23 | 1009.0 |
| 20260506214531 | 18 | 277 | 19.3 | 27.4 | 0.00 | 0.00 | 0.00 | 23 | 1009.4 |
| 20260506213030 | 17 | 243 | 17.7 | 27.4 | 0.00 | 0.00 | 0.00 | 24 | 1009.4 |
| 20260506211532 | 17 | 324 | 16.1 | 30.6 | 0.00 | 0.00 | 0.00 | 24 | 1009.7 |
| 20260506210032 | 17 | 294 | 14.5 | 24.1 | 0.00 | 0.00 | 0.00 | 25 | 1010.0 |
| 20260506204532 | 16 | 312 | 16.1 | 29.0 | 0.00 | 0.00 | 0.00 | 25 | 1010.2 |
| 20260506203030 | 16 | 249 | 14.5 | 27.4 | 0.00 | 0.00 | 0.00 | 26 | 1010.5 |
| 20260506201541 | 15 | 234 | 8.0 | 20.9 | 0.00 | 0.00 | 0.00 | 25 | 1010.7 |
| 20260506200032 | 15 | 292 | 12.9 | 25.7 | 0.00 | 0.00 | 0.00 | 25 | 1010.9 |
| 20260506194534 | 14 | 292 | 9.7 | 33.8 | 0.00 | 0.00 | 0.00 | 27 | 1011.1 |
| 20260506193030 | 13 | 254 | 17.7 | 35.4 | 0.00 | 0.00 | 0.00 | 26 | 1011.4 |
| 20260506191532 | 13 | 232 | 12.9 | 20.9 | 0.00 | 0.00 | 0.00 | 25 | 1011.6 |
| 20260506190029 | 13 | 204 | 16.1 | 37.0 | 0.00 | 0.00 | 0.00 | 27 | 1012.0 |
| 20260506184536 | 12 | 178 | 17.7 | 37.0 | 0.00 | 0.00 | 0.00 | 25 | 1012.3 |
| 20260506183031 | 12 | 221 | 12.9 | 27.4 | 0.00 | 0.00 | 0.00 | 26 | 1012.6 |
| 20260506181530 | 11 | 196 | 12.9 | 27.4 | 0.00 | 0.00 | 0.00 | 26 | 1012.7 |
| 20260506180032 | 11 | 165 | 16.1 | 32.2 | 0.00 | 0.00 | 0.00 | 28 | 1013.1 |
| 20260506174532 | 10 | 203 | 16.1 | 25.7 | 0.00 | 0.00 | 0.00 | 27 | 1013.4 |
| 20260506173035 | 10 | 207 | 16.1 | 29.0 | 0.00 | 0.00 | 0.00 | 28 | 1013.6 |
| 20260506171539 | 9 | 211 | 12.9 | 27.4 | 0.00 | 0.00 | 0.00 | 31 | 1014.0 |
| 20260506170029 | 9 | 196 | 16.1 | 29.0 | 0.00 | 0.00 | 0.00 | 33 | 1014.4 |
| 20260506164532 | 8 | 169 | 16.1 | 30.6 | 0.00 | 0.00 | 0.00 | 36 | 1014.4 |
| 20260506163039 | 8 | 211 | 19.3 | 29.0 | 0.00 | 0.00 | 0.00 | 38 | 1014.6 |
| 20260506161538 | 7 | 184 | 17.7 | 25.7 | 0.00 | 0.00 | 0.00 | 42 | 1014.9 |
| 20260506160034 | 6 | 244 | 16.1 | 27.4 | 0.00 | 0.00 | 0.00 | 47 | 1015.0 |
| 20260506154537 | 6 | 232 | 19.3 | 29.0 | 0.00 | 0.00 | 0.00 | 49 | 1015.3 |
| 20260506153028 | 5 | 215 | 19.3 | 29.0 | 0.00 | 0.00 | 0.00 | 51 | 1015.4 |
| 20260506151530 | 5 | 219 | 19.3 | 27.4 | 0.00 | 0.00 | 0.00 | 53 | 1015.7 |
| 20260506150032 | 5 | 215 | 16.1 | 25.7 | 0.00 | 0.00 | 0.00 | 54 | 1015.7 |
| 20260506144531 | 4 | 220 | 16.1 | 25.7 | 0.00 | 0.00 | 0.00 | 55 | 1015.9 |
| 20260506143029 | 3 | 254 | 17.7 | 25.7 | 0.00 | 0.00 | 0.00 | 55 | 1016.1 |
| 20260506141526 | 3 | 212 | 16.1 | 22.5 | 0.00 | 0.00 | 0.00 | 54 | 1016.3 |
| 20260506140034 | 3 | 213 | 11.3 | 17.7 | 0.00 | 0.00 | 0.00 | 53 | 1016.3 |
| 20260506134532 | 2 | 184 | 8.0 | 12.9 | 0.00 | 0.00 | 0.00 | 53 | 1016.3 |
| 20260506133031 | 1 | 213 | 6.4 | 11.3 | 0.00 | 0.00 | 0.00 | 56 | 1016.3 |
| 20260506131533 | 0 | 234 | 6.4 | 11.3 | 0.00 | 0.00 | 0.00 | 56 | 1016.3 |
| 20260506130032 | 0 | 262 | 1.6 | 6.4 | 0.00 | 0.00 | 0.00 | 56 | 1016.4 |
| 20260506124528 | -1 | 252 | 3.2 | 6.4 | 0.00 | 0.00 | 0.00 | 56 | 1016.6 |
| 20260506123030 | -1 | 267 | 3.2 | 4.8 | 0.00 | 0.00 | 0.00 | 56 | 1016.6 |
| 20260506121530 | -1 | 268 | 3.2 | 6.4 | 0.00 | 0.00 | 0.00 | 57 | 1016.7 |
| 20260506120034 | -1 | 268 | 3.2 | 6.4 | 0.00 | 0.00 | 0.00 | 56 | 1016.8 |
| 20260506114529 | -1 | 267 | 4.8 | 9.7 | 0.00 | 0.00 | 0.00 | 55 | 1017.0 |
| 20260506113030 | -1 | 268 | 4.8 | 9.7 | 0.00 | 0.00 | 0.00 | 56 | 1017.1 |
| 20260506111530 | -1 | 268 | 8.0 | 11.3 | 0.00 | 0.00 | 0.00 | 55 | 1017.3 |
| 20260506110033 | -1 | 265 | 6.4 | 9.7 | 0.00 | 0.00 | 0.00 | 55 | 1017.5 |
| 20260506104530 | -1 | 265 | 4.8 | 9.7 | 0.00 | 0.00 | 0.00 | 56 | 1017.4 |
| 20260506103033 | -1 | 263 | 4.8 | 6.4 | 0.00 | 0.00 | 0.00 | 56 | 1017.6 |
| 20260506101530 | -1 | 261 | 3.2 | 11.3 | 0.00 | 0.00 | 0.00 | 55 | 1017.7 |
| 20260506100028 | -1 | 263 | 6.4 | 11.3 | 0.00 | 0.00 | 0.00 | 55 | 1017.8 |
| 20260506094530 | -1 | 257 | 3.2 | 8.0 | 0.00 | 0.00 | 0.00 | 54 | 1018.0 |
| 20260506093052 | -1 | 237 | 6.4 | 11.3 | 0.00 | 0.00 | 0.00 | 53 | 1018.0 |
| 20260506091533 | -2 | 259 | 4.8 | 11.3 | 0.00 | 0.00 | 0.00 | 54 | 1018.2 |
| 20260506090029 | -1 | 227 | 4.8 | 8.0 | 0.00 | 0.00 | 0.00 | 52 | 1018.2 |
| 20260506084529 | 0 | 229 | 3.2 | 8.0 | 0.00 | 0.00 | 0.00 | 52 | 1018.4 |
| 20260506083034 | -1 | 336 | 1.6 | 3.2 | 0.00 | 0.00 | 0.00 | 54 | 1018.5 |
| 20260506081532 | -2 | 336 | 1.6 | 4.8 | 0.00 | 0.00 | 0.00 | 55 | 1018.5 |
| 20260506073030 | -1 | 0 | 0.0 | 4.8 | 0.00 | 0.00 | 0.00 | 55 | 1018.8 |
| 20260506071534 | -2 | 0 | 0.0 | 6.4 | 0.00 | 0.00 | 0.00 | 54 | 1018.8 |
| 20260506061540 | -1 | 326 | 3.2 | 11.3 | 0.00 | 0.00 | 0.00 | 54 | 1019.2 |